fechar
X Fechar
X Fechar

X Fechar
foto
Salvar nos Favoritos

X Fechar
foto
Clique e saiba mais
Clique e saiba mais
Clique e saiba mais
Clique e saiba mais
Clique e saiba mais

América Sports

Capacete Companhia

RM - Motocross Racing

Edgers Racing

RX Graphics

JPS Racing

Ohlins

DLua Racing

Clique e saiba mais

> Notícias > Últimas Notícias

MXGP da Argentina 2017: resultados e vídeo das classificatórias
Publicado em: 18/03/2017

Tim Gajser e Pauls Jonass dominam primeiro dia de competições na Patagônia
Redação MotoX.com.br: Lucidio Arruda - Fotos: Bavo / Max Zanzani

Primeiro dia de motos na pista na Argentina com as classificatórias dominadas por Tim Gajser na MXGP e Pauls Jonass na MX2. Ambos assumiram a ponta logo após a largada e deixaram as brigas por posições rolando mais atrás


Largada MXGP na Patagônia. Tim Gajser liderou o pelotão

Na classe MXGP o holandês Glenn Coldenhoff partiu na segunda posição, mas não conseguiu segurar muitos oponentes. Foi ultrapassado por Jeremy van Horebeek, Antonio Cairoli, Arnaud Tonus, Evgeny Bobryshev, Kevin Strijbos, Arminas Jasikonis, Shaun Simpson, Max Anstie e Romain Febvre.

No final das 13 voltas Cairoli apertou o ritmo tentando se aproximar de Horebeek, mas o belga respondeu e impediu a aproximação.

O campeão brasileiro Jetro Salazar fez uma excelente largada na quinta posição para completar a primeira volta em oitavo. Encontrou um bom ritmo e em 11º chegou a dar duas voltas a frente de Romain Febvre, antes de enfrentar problemas, cair e abandonar a bateria. Mas está bem e disposto para correr no domingo.

Cinco pilotos oficiais se enroscaram na primeira curva. Os três oficiais da Husqvarna - Gautier Paulin, Max Nagl e Max Anstie (que não chegou a cair) - além de Jeffrey Herlings e Clement Desalle. Dessa turma o melhor resultado foi de Anstie que terminou na nona posição.


Largada MX2

Na MX2 Jonass foi seguido de perto pelo companheiro de equipe Jorge Prado. O terceiro lugar ficou com o norte-americano Darian Sanayei que fez bonito avançando do sétimo lugar na primeira volta.

Neste domingo as provas oficiais acontecem a partir do meio dia. Os resultados das baterias e cronometragem em tempo real pode sem acompanhados em nossa página de cronometragem do Mundial de Motocross.

Transmissão

A MXGP-TV transmite ao vivo ou sob demanda as classificatórias no sábado e provas finais no domingo em pacotes pagos por etapa ou todo o campeonato.

Na TV a Band Sports transmite as baterias da MXGP ao vivo no domingo, segundo informações da Youthstream. Confirmem a transmissão no site da emissora.

Cronograma (Horário de Brasília)

Sábado, 18 de março
15:15 Classificatória MX2
16:00 Classificatória MXGP

Domingo, 19 de março
12:00 MX2 1ª Bateria
13:00 MXGP 1ª Bateria
15:00 MX2 2ª Bateria
16:00 MXGP 2ª Bateria

Vídeos







Resultados Classificatórias

P. # MXGP País Moto Tempo V Dif. Gap M.V. in lap Speed
1 243 Gajser, Tim SLO Hon 24:37.502 13 0:00.000 0:00.000 1:44.507 1 53.3
2 89 Van Horebeek, Jeremy BEL Yam 24:41.786 13 0:04.284 0:04.284 1:44.976 1 53.1
3 222 Cairoli, Antonio ITA KTM 24:43.363 13 0:05.861 0:01.577 1:45.283 10 53
4 4 Tonus, Arnaud SUI Yam 24:53.625 13 0:16.123 0:10.262 1:45.643 3 52.8
5 777 Bobryshev, Evgeny RUS Hon 24:54.469 13 0:16.967 0:00.844 1:45.814 6 52.7
6 22 Strijbos, Kevin BEL Suz 24:55.209 13 0:17.707 0:00.740 1:44.745 5 53.2
7 27 Jasikonis, Arminas LTU Suz 24:59.496 13 0:21.994 0:04.287 1:45.199 5 53
8 24 Simpson, Shaun GBR Yam 25:02.813 13 0:25.311 0:03.317 1:45.424 4 52.9
9 99 Anstie, Max GBR Hus 25:04.382 13 0:26.880 0:01.569 1:46.094 5 52.5
10 461 Febvre, Romain FRA Yam 25:05.785 13 0:28.283 0:01.403 1:45.457 7 52.9
11 259 Coldenhoff, Glenn NED KTM 25:11.073 13 0:33.571 0:05.288 1:45.219 1 53
12 12 Nagl, Maximilian GER Hus 25:17.337 13 0:39.835 0:06.264 1:46.073 7 52.6
13 21 Paulin, Gautier FRA Hus 25:19.355 13 0:41.853 0:02.018 1:46.555 7 52.3
14 25 Desalle, Clement BEL Kaw 25:23.351 13 0:45.849 0:03.996 1:45.505 6 52.8
15 84 Herlings, Jeffrey NED KTM 25:24.819 13 0:47.317 0:01.468 1:47.190 11 52
16 17 Butron, Jose ESP KTM 25:34.260 13 0:56.758 0:09.441 1:47.598 6 51.8
17 999 Goncalves, Rui POR Hus 25:34.927 13 0:57.425 0:00.667 1:48.724 5 51.3
18 92 Guillod, Valentin SUI Hon 25:40.772 13 1:03.270 0:05.845 1:47.375 6 51.9
19 45 Nicholls, Jake GBR KTM 25:42.391 13 1:04.889 0:01.619 1:47.584 7 51.8
20 77 Lupino, Alessandro ITA Hon 25:53.149 13 1:15.647 0:10.758 1:48.345 2 51.5
21 7 Leok, Tanel EST Hus 26:20.162 13 1:42.660 0:27.013 1:49.572 12 50.9
22 179 Poli, Joaquin ARG Hon 26:34.640 13 1:57.138 0:14.478 1:50.832 3 50.3
23 707 Arco, Victor Dario ARG Suz 24:46.511 12 1 lap 1 lap 1:52.526 3 49.5
24 54 Fanello, Ezequiel ARG Yam 25:08.241 12 1 lap 0:21.730 1:53.120 3 49.3
25 58 Carranza, Nicolas ARG Hus 25:14.861 12 1 lap 0:06.620 1:54.226 8 48.8
26 198 Poli, Agustin ARG Hus 25:21.155 12 1 lap 0:06.294 1:53.993 1 48.9
27 171 Luzzardi, Juan Pablo ARG KTM 25:22.124 12 1 lap 0:00.969 1:53.003 3 49.3
28 150 Fernandez, Jose Manuel CHL Hon 25:23.970 12 1 lap 0:01.846 1:54.179 1 48.8
29 771 Schmit, Marco ARG Yam 25:49.574 12 1 lap 0:25.604 1:54.451 4 48.7
30 890 Antezana, Marco BOL Yam 25:50.730 12 1 lap 0:01.156 1:54.975 3 48.5
31 286 Danke, Felipe CHL Kaw 26:05.168 12 1 lap 0:14.438 1:56.425 2 47.9
32 60 Salazar, Jetro ECU Hon 22:33.694 8 5 laps 4 laps 1:48.428 3 51.4
33 952 Felipe, Jose Gerardo ARG Kaw 11:14.131 5 8 laps 3 laps 1:49.735 1 50.8
34 911 Tixier, Jordi FRA Kaw 8:37.565 2 11 laps 3 laps 1:46.118 1 52.5

P. # MX2 País Moto Tempo V Dif. Gap M.V. in lap Speed
1 41 Jonass, Pauls LAT KTM 24:57.849 13 0:00.000 0:00.000 1:45.129 2 53
2 61 Prado Garcia, Jorge ESP KTM 25:01.774 13 0:03.925 0:03.925 1:45.473 3 52.9
3 57 Sanayei, Darian USA Kaw 25:02.356 13 0:04.507 0:00.582 1:46.246 2 52.5
4 33 Lieber, Julien BEL KTM 25:09.883 13 0:12.034 0:07.527 1:45.699 3 52.7
5 172 Van doninck, Brent BEL Yam 25:14.251 13 0:16.402 0:04.368 1:46.387 6 52.4
6 91 Seewer, Jeremy SUI Suz 25:18.097 13 0:20.248 0:03.846 1:45.917 2 52.6
7 96 Lawrence, Hunter AUS Suz 25:19.612 13 0:21.763 0:01.515 1:47.692 11 51.8
8 19 Olsen, Thomas Kjer DEN Hus 25:20.372 13 0:22.523 0:00.760 1:45.533 3 52.8
9 64 Covington, Thomas USA Hus 25:21.200 13 0:23.351 0:00.828 1:46.787 2 52.2
10 747 Cervellin, Michele ITA Hon 25:30.593 13 0:32.744 0:09.393 1:47.980 3 51.6
11 6 Paturel, Benoit FRA Yam 25:31.092 13 0:33.243 0:00.499 1:46.758 7 52.2
12 10 Vlaanderen, Calvin NED KTM 25:35.359 13 0:37.510 0:04.267 1:48.481 2 51.4
13 321 Bernardini, Samuele ITA TM 25:35.736 13 0:37.887 0:00.377 1:48.925 10 51.2
14 189 Bogers, Brian NED KTM 25:41.462 13 0:43.613 0:05.726 1:48.195 5 51.5
15 919 Watson, Ben GBR KTM 25:43.060 13 0:45.211 0:01.598 1:49.416 1 50.9
16 66 Larranaga Olano, Iker ESP Hus 25:43.856 13 0:46.007 0:00.796 1:48.570 5 51.3
17 811 Sterry, Adam GBR Kaw 25:48.324 13 0:50.475 0:04.468 1:48.585 6 51.3
18 46 Pootjes, Davy NED KTM 25:59.869 13 1:02.020 0:11.545 1:48.702 6 51.3
19 128 Monticelli, Ivo ITA KTM 26:03.846 13 1:05.997 0:03.977 1:50.009 2 50.7
20 118 Rubini, Stephen FRA Kaw 26:09.381 13 1:11.532 0:05.535 1:49.753 9 50.8
21 28 Notsuka, Chihiro JPN Hon 26:11.466 13 1:13.617 0:02.085 1:49.363 4 51
22 142 Petrov, Ivan BUL Hus 26:11.547 13 1:13.698 0:00.081 1:50.432 5 50.5
23 426 Mewse, Conrad GBR Hus 26:19.470 13 1:21.621 0:07.923 1:50.681 4 50.4
24 107 van Berkel, Lars NED Hon 26:23.237 13 1:25.388 0:03.767 1:51.301 10 50.1
25 297 Gole, Anton SWE Hus 26:37.847 13 1:39.998 0:14.610 1:50.562 1 50.4
26 109 Fabre, Yannick FRA Kaw 26:47.669 13 1:49.820 0:09.822 1:51.792 3 49.9
27 375 Seibel, Julian ARG Hon 25:35.075 12 1 lap 1 lap 1:54.807 4 48.6
28 155 Mana, Nicolas ARG KTM 25:44.205 12 1 lap 0:09.130 1:55.889 6 48.1
29 67 Klingsheim, Magne NOR Kaw 25:52.829 12 1 lap 0:08.624 1:53.828 3 49
30 111 Garrido, Victor ARG Kaw 25:55.325 12 1 lap 0:02.496 1:55.296 1 48.3
31 143 Muñoz, Sebastian CHL Suz 26:12.318 12 1 lap 0:16.993 1:53.118 3 49.3
32 122 Cassano, Benjamin ARG Suz 26:26.114 12 1 lap 0:13.796 1:56.726 3 47.8
33 197 Toya, Ignacio ARG Hon 21:47.293 10 3 laps 2 laps 1:55.824 4 48.1
34 18 Brylyakov, Vsevolod RUS Kaw 18:37.806 9 4 laps 1 lap 1:46.748 3 52.2
35 48 Wilson, Jay AUS Yam 17:55.756 8 5 laps 1 lap 1:49.754 4 50.8
36 98 Vaessen, Bas NED Suz 14:43.013 7 6 laps 1 lap 1:49.252 4 51
37 170 Ward, Caleb AUS Hus 12:51.423 6 7 laps 1 lap 1:49.402 6 51
38 611 Kriger, Nahuel ARG KTM 14:20.889 6 7 laps 1:29.466 1:52.440 1 49.6










Vídeos MotoX Connect



Acompanhe o MotoX no Facebook

Curso MotoX Ric Raspa
Brasil Racing
JPS Racing

© 2000 - 2017 MotoX MX1 Internet